Location: Poughquag
(41.6090°N, 73.6820°W)
Time: 14:45:22
(UTC-04:00)

Courier 1B - Pass Details

Date: 01 June 2020
Orbit: 962 x 1209 km, 28.3° (Epoch: 05 July)

Event Time Altitude Azimuth Distance (km) Brightness Sun altitude
Exits shadow 04:32:05 - 245° (WSW) 3,237 9.6 -8.5°
Reaches altitude 10° 04:32:32 10° 242° (WSW) 3,136 9.5 -8.5°
Maximum altitude 04:37:46 20° 200° (SSW) 2,491 9.1 -7.7°
Drops below altitude 10° 04:43:00 10° 158° (SSE) 3,122 10.0 -7.0°
Sets 04:46:43 0° 141° (SE) 4,062 10.8 -6.4°
